Simultaneous Nadir Overpasses (SNOs) Predictions

Prediction of SNOs between AQUA and GOES-15 Satellite Orbit:

Table of predicted SNOs for the next 14.0 days since TLE Epoch: 4/15/2016
Index Date Time (AQUA) AQUA Lat,Lon GOES-15 Lat,Lon Distance(km) Time Diff (sec)
1 04/17/2016 10:32:55 -0.18,-134.31 0.06,-135.40 124.40 80
2 04/17/2016 22:54:19 -0.95,-139.49 -0.06,-135.39 467.27 80
3 04/19/2016 10:20:44 -0.79,-131.35 0.06,-135.41 460.84 80
4 04/19/2016 22:42:08 -0.34,-136.54 -0.06,-135.39 130.88 80
5 04/21/2016 22:29:58 0.35,-133.60 -0.06,-135.39 205.14 80
6 04/22/2016 10:51:13 0.80,-138.74 0.06,-135.41 379.81 80
7 04/24/2016 10:39:02 0.17,-135.79 0.06,-135.40 44.76 80
8 04/26/2016 10:26:51 -0.47,-132.84 0.06,-135.39 289.73 80
9 04/26/2016 22:48:15 -0.63,-138.03 -0.06,-135.37 303.02 80
10 04/28/2016 22:36:03 -0.03,-135.07 -0.07,-135.34 30.83 80




NCC Satellite Simultaneous Nadir Overpasses (SNOs) Prediction Service
